This is the latest recevied weather packets stored in our database for station/object WX5RP. If no packets are shown the sender has not sent any weather packets the latest 10 day(s).
| Time | Temp. | Humidity | Pressure | Rain* | Wind** | Luminosity | Snow |
|---|---|---|---|---|---|---|---|
| 1778117716 | 24.44° C | 26% | 1017.3 hPa | 0 mm | - | 197 W/m² | - |
| 1778117116 | 23.89° C | 25% | 1016.8 hPa | 0 mm | - | 213 W/m² | - |
| 1778116515 | 24.44° C | 24% | 1016.8 hPa | 0 mm | - | 222 W/m² | - |
| 1778115916 | 24.44° C | 24% | 1017.7 hPa | 0 mm | - | 250 W/m² | - |
| 1778115315 | 25° C | 24% | 1017.8 hPa | 0 mm | - | 308 W/m² | - |
| 1778114715 | 25° C | 23% | 1018 hPa | 0 mm | - | 346 W/m² | - |
| 1778114115 | 25° C | 23% | 1017.8 hPa | 0 mm | - | 273 W/m² | - |
| 1778113517 | 25° C | 26% | 1017.8 hPa | 0 mm | - | 447 W/m² | - |
| 1778112917 | 25.56° C | 23% | 1017.8 hPa | 0 mm | - | 450 W/m² | - |
| 1778112317 | 25.56° C | 24% | 1017.7 hPa | 0 mm | - | 515 W/m² | - |
| 1778111717 | 26.11° C | 21% | 1017.5 hPa | 0 mm | - | 547 W/m² | - |
| 1778111117 | 26.11° C | 22% | 1017.5 hPa | 0 mm | - | 577 W/m² | - |
| 1778110517 | 26.11° C | 21% | 1017.5 hPa | 0 mm | - | 605 W/m² | - |
| 1778109917 | 26.11° C | 23% | 1017.9 hPa | 0 mm | - | 639 W/m² | - |
| 1778109317 | 26.11° C | 24% | 1018.2 hPa | 0 mm | - | 667 W/m² | - |
| 1778108717 | 26.11° C | 24% | 1017.5 hPa | 0 mm | - | 684 W/m² | - |
| 1778108117 | 25.56° C | 22% | 1017.5 hPa | 0 mm | - | 689 W/m² | - |
| 1778107517 | 26.11° C | 22% | 1017.8 hPa | 0 mm | - | 740 W/m² | - |
| 1778106917 | 26.67° C | 24% | 1018 hPa | 0 mm | - | 759 W/m² | - |
| 1778106317 | 26.67° C | 22% | 1018.4 hPa | 0 mm | - | 783 W/m² | - |
| 1778105717 | 26.11° C | 21% | 1018.3 hPa | 0 mm | - | 804 W/m² | - |
| 1778105117 | 26.11° C | 22% | 1018.6 hPa | 0 mm | - | 824 W/m² | - |
| 1778104517 | 25.56° C | 23% | 1018.7 hPa | 0 mm | - | 846 W/m² | - |
| 1778103917 | 25.56° C | 27% | 1018.8 hPa | 0 mm | - | 864 W/m² | - |
| 1778103317 | 25.56° C | 21% | 1018.6 hPa | 0 mm | - | 879 W/m² | - |
* Rain latest hour (hover to see other rain measurements)
** Current wind speed in m/s (hover to see current wind gust speed)